Location: Caltech
(34.1382°N, 118.1253°W)
Time: 22:14:57
(UTC-08:00)

Cosmos 1943 Rocket - Visible Passes

Search period start: 11 December 2017 00:00
Search period end: 21 December 2017 00:00
Orbit: 810 x 846 km, 71.0° (Epoch: 11 December)

Date Brightness Start Highest point End Pass type
(mag) Time Alt. Az. Time Alt. Az. Time Alt. Az.
11 Dec 4.9 17:47:09 10° WNW 17:48:10 10° NW 17:49:12 10° NW visible
12 Dec 4.7 17:26:41 10° WNW 17:28:52 12° NW 17:31:04 10° NNW visible
13 Dec 4.6 17:06:41 10° W 17:09:34 14° NW 17:12:28 10° NNW visible
